Regional Weather Roundup
Issued by NWS

Home | Current Version | Previous Version | Graphics & Text | Print | Product List | Glossary On
Versions: 1 2 3 4 5 6 7 8 9 10 11 12 13 14 15 16 17 18 19 20 21 22 23 24 25 26 27 28 29 30 31 32 33 34 35 36 37 38 39 40 41 42 43 44 45 46 47 48 49 50
000
ASUS43 KMKX 281411
RWRWI

WISCONSIN REGIONAL WEATHER ROUNDUP
NATIONAL WEATHER SERVICE MILWAUKEE/SULLIVAN WI
800 AM CST SUN DEC 28 2014

NOTE: "FAIR" INDICATES FEW OR NO CLOUDS BELOW 12,000 FEET WITH NO
SIGNIFICANT WEATHER AND/OR OBSTRUCTIONS TO VISIBILITY.

WIZ001-002-006>008-014>016-023>028-281500-
NORTHWEST WISCONSIN

CITY           SKY/WX    TMP DP  RH WIND       PRES   REMARKS
SUPERIOR ARPT  CLEAR     16   9  76 NW5       30.13R WCI   8
ASHLAND        LGT SNOW  16  12  84 W7        30.09R FOG     WCI   6
HAYWARD        CLOUDY    16  12  84 CALM      30.07R
SIREN          FLURRIES  15  12  86 W3        30.10R
CUMBERLAND     FLURRIES  12  10  92 W3        30.07R
RICE LAKE      FLURRIES  14  10  85 W5        30.10R WCI   6
CHETEK         CLOUDY    12   9  87 CALM      30.09R
LADYSMITH      LGT SNOW  11   9  90 CALM      30.09R
EAU CLAIRE     CLEAR      7   4  87 SW3       30.10R
MENOMONIE      CLEAR      4   1  86 CALM      30.12R FOG
NEW RICHMOND   CLOUDY    10   7  89 SW3       30.11R
OSCEOLA        CLOUDY    13  10  90 CALM      30.14R
$$

WIZ003>005-009-010-017-018-281500-
NORTH CENTRAL WISCONSIN

CITY           SKY/WX    TMP DP  RH WIND       PRES   REMARKS
MANITOWISH WTR CLOUDY    11  10  92 W3        30.01R
ARBOR VITAE    FLURRIES  14  11  89 CALM      30.01R
WOODRUFF       FLURRIES  14  11  89 CALM      30.01R
RHINELANDER    CLOUDY     8   6  92 W8        30.02R WCI  -4
EAGLE RIVER    FLURRIES  12   8  84 CALM      30.00R
LAND O LAKES   FLURRIES  14  11  89 W5        30.00R WCI   6
PHILLIPS       FLURRIES  10   8  89 CALM      30.03R
TOMAHAWK       LGT SNOW  10   8  91 CALM      30.04S
MEDFORD        CLOUDY    10   8  89 CALM      30.05R FOG
MERRILL        LGT SNOW  10   9  92 W6        30.06R WCI   1
$$

WIZ029-030-035-036-043>047-281500-
CENTRAL WISCONSIN

CITY           SKY/WX    TMP DP  RH WIND       PRES   REMARKS
WAUSAU         CLOUDY    12  10  92 W6        30.06R WCI   3
MOSINEE        CLOUDY    12  10  92 VRB3      30.08R
MARSHFIELD     CLOUDY    12   8  84 SW6       30.07S WCI   3
STEVENS POINT  CLOUDY    13  11  91 W3        30.10S
WAUPACA        CLOUDY    18  13  81 W3        30.12R
WAUTOMA        CLEAR     15  12  88 CALM      30.13R
WISC RAPIDS    CLOUDY    14   9  80 W6        30.12R WCI   5
CAMP DOUGLAS   PTCLDY    10  10 100 W3        30.12R
$$

WIZ011>013-019>022-031-037>040-048>050-281500-
NORTHEAST WISCONSIN

CITY           SKY/WX    TMP DP  RH WIND       PRES   REMARKS
ANTIGO         FLURRIES   8   7  92 W7        30.04R WCI  -3
SHAWANO        MOCLDY    17  11  80 W5        30.09S WCI   9
OCONTO         CLEAR     16  13  85 W10       30.09S WCI   4
STURGEON BAY   CLEAR     19  12  73 W7        30.09R WCI  10
GREEN BAY      CLEAR     20  14  77 W13       30.11R WCI   7
MANITOWOC      CLEAR     21  18  88 NW9       30.10R WCI  11
APPLETON       PTCLDY    18  12  79 W12       30.10R WCI   5
CLINTONVILLE   CLOUDY    18  12  79 W8        30.10S WCI   7
OSHKOSH        CLEAR     18  12  77 W5        30.11R WCI  11
$$

WIZ032>034-041-042-053>061-281500-
SOUTHWEST WISCONSIN

CITY           SKY/WX    TMP DP  RH WIND       PRES   REMARKS
LA CROSSE      PTCLDY    14   9  80 S8        30.15R WCI   3
SPARTA         CLEAR      9   6  89 CALM      30.14R
VIROQUA        CLEAR     14  14 100 W6        30.10R WCI   5
BOSCOBEL       CLEAR     16  11  80 S3        30.16R
PRAIRIE DU CHI CLEAR     16  11  83 CALM      30.17R
PLATTEVILLE    CLEAR     16  14  92 CALM      30.15R
$$

WIZ056-057-062-063-064-067-068-281500-
SOUTH CENTRAL WISCONSIN

CITY           SKY/WX    TMP DP  RH WIND       PRES   REMARKS
REEDSBURG      CLEAR     15  11  85 SW3       30.12S
BARABOO/DELLS  CLEAR     15  11  86 W3        30.11S
LONE ROCK      CLEAR     18  10  71 CALM      30.15S
MINERAL POINT  CLEAR     18  16  93 W3        30.12R
MADISON        PTCLDY    18  11  74 CALM      30.13R
MIDDLETON      CLEAR     18  13  80 W5        30.13S WCI  11
WATERTOWN      CLEAR     18  16  89 W5        30.13R WCI  11
MONROE         CLEAR     18  16  93 SW6       30.13R WCI   9
JANESVILLE     CLEAR     18  14  86 SW6       30.15R WCI   9
$$

WIZ051-052-058>065-066-070>072-281500-
SOUTHEAST WISCONSIN

CITY           SKY/WX    TMP DP  RH WIND       PRES   REMARKS
MILWAUKEE      PTCLDY    23  15  71 W8        30.13R WCI  14
WAUKESHA       CLEAR     18  12  79 W5        30.13R WCI  11
MILWAUKEE/TIMM CLEAR     19  12  73 SW6       30.14R WCI  11
RACINE         PTCLDY    22  17  81 W5        30.15R WCI  16
BURLINGTON     PTCLDY    18  15  86 W3        30.14R
KENOSHA        PTCLDY    21  17  84 W8        30.14R WCI  11
FOND DU LAC    CLEAR     19  13  77 W3        30.11S
SHEBOYGAN      CLEAR     21  15  78 W13       30.10R WCI   9
WEST BEND      CLEAR     21  14  73 W8        30.10R WCI  12
JUNEAU         CLEAR     17  12  83 W6        30.13R WCI   8
$$

LSZ147-162-281500-
LAKE SUPERIOR

STATION/POSITION TIME  TEMP    WIND        PRES    WAVE
                       AIR SEA DIR/SP/G            HT/PER
                 (UTC) (F)     (DEG/KT/KT) (MB)    (FT/S)
DEVILS ISLAND    1400   17     320/ 17/ 20 1020.4R
PORT WING        1300   22     300/ 11/ 17 1018.6
SAXON HARBOR     1300   19     210/  5/  8 1018.3R
$$

LMZ867-665-643>646-281500-
LAKE MICHIGAN

STATION/POSITION TIME  TEMP    WIND        PRES    WAVE
                       AIR SEA DIR/SP/G            HT/PER
                 (UTC) (F)     (DEG/KT/KT) (MB)    (FT/S)
CHAMBERS ISLAND  1300   19     230/  6/ 11 1018.3R
NORTHPORT PIER   1303   21     270/  4/ 13 1017.6R
SISTER BAY       1343          280/ 13/ 15   N/A
ALGOMA LAKESHORE 1315          320/ 10/ 14   N/A
KEWAUNEE LAKESHO 1300   22     280/  8/ 15 1017.5R
SHEBOYGAN LAKESH 1400   22 37  270/ 15/ 19 1020.2R
PORT WASHINGTON  1340   23     270/  5/ 10 1020.3S
MILWAUKEE LAKESH 1300   24     270/  6/  8   N/A
KENOSHA   LAKESH 1400   23     260/  7/ 10 1021.0R
$$

TC  - TEMPERATURE IN CELSIUS
VSB - VISIBILITY IN STATUTE MILES
WCI - WIND CHILL INDEX
HX  - HEAT INDEX




USA.gov is the U.S. government's official web portal to all federal, state and local government web resources and services.